[Iaude] MPEC L35: 2022 LP [a=2.21,e=0.54,i=17.4,H=25.1]

mpec at marsden.cfa.harvard.edu mpec at marsden.cfa.harvard.edu
Sun Jun 5 09:12:59 EDT 2022


M.P.E.C. 2022-L35                                  Issued 2022 June 5, 13:11 UT

     The Minor Planet Electronic Circulars contain information on unusual
         minor planets and routine data on comets.  They are published
    on behalf of Division F of the International Astronomical Union by the
          Minor Planet Center, Smithsonian Astrophysical Observatory,
                          Cambridge, MA 02138, U.S.A.

             Prepared using the Tamkin Foundation Computer Network

                              MPC at CFA.HARVARD.EDU
            URL https://www.minorplanetcenter.net/    ISSN 1523-6714

                                    2022 LP                                     


Observations:
     K22L00P* C2022 06 04.34120816 03 49.363+33 58 59.59         20.00GVEL035G96
     K22L00P  C2022 06 04.34643216 03 51.563+33 58 07.36               VEL035G96
     K22L00P  C2022 06 04.35166116 03 53.802+33 57 14.08         20.34GVEL035G96
     K22L00P  C2022 06 04.35687916 03 56.045+33 56 21.12               VEL035G96
     K22L00P mC2022 06 04.44594016 04 36.077+33 40 51.56         20.18GVEL035I52
     K22L00P mC2022 06 04.44625516 04 36.206+33 40 48.22         20.64GVEL035I52
     K22L00P mC2022 06 04.44657116 04 36.361+33 40 44.87         20.19GVEL035I52
     K22L00P mC2022 06 04.44688816 04 36.476+33 40 41.02         20.98GVEL035I52
     K22L00P 1C2022 06 04.87973 16 08 49.71 +32 21 13.5          20.1 VXEL035033
     K22L00P 1C2022 06 04.88049 16 08 50.10 +32 21 04.6          20.0 VXEL035033
     K22L00P 1C2022 06 04.88124 16 08 50.49 +32 20 55.9          20.1 VXEL035033
     K22L00P KC2022 06 04.89033616 08 57.799+32 19 38.82               VEL035B37
     K22L00P KC2022 06 04.89083916 08 58.092+32 19 33.13               VEL035B37
     K22L00P KC2022 06 04.89982616 09 02.594+32 17 48.44         20.3 GVEL035B37
     K22L00P KC2022 06 04.90116316 09 00.62 +32 17 24.5          19.9 VdEL035L01
     K22L00P KC2022 06 04.90132516 09 03.343+32 17 30.91         19.6 GVEL035B37
     K22L00P KC2022 06 04.90134316 09 03.365+32 17 30.73         20.6 GVEL035B37
     K22L00P KC2022 06 04.90260516 09 01.33 +32 17 07.3          19.8 VdEL035L01
     K22L00P KC2022 06 04.90404716 09 02.07 +32 16 50.5          19.9 VdEL035L01
     K22L00P KC2022 06 04.90548816 09 02.79 +32 16 33.7          20.0 VdEL035L01
     K22L00P KC2022 06 04.90693016 09 03.51 +32 16 16.5          19.8 VdEL035L01
     K22L00P KC2022 06 04.91183416 09 08.662+32 15 27.40         19.5 GVEL035B37
     K22L00P KC2022 06 04.92808016 09 17.58 +32 12 05.6          19.8 GXEL035958
     K22L00P KC2022 06 04.93035316 09 18.68 +32 11 39.7          19.5 GXEL035958
     K22L00P KC2022 06 04.93255716 09 19.80 +32 11 12.9          19.9 GXEL035958
     K22L00P KC2022 06 04.94317116 09 24.506+32 09 16.02         19.7 GVEL035B49
     K22L00P KC2022 06 04.94497116 09 25.471+32 08 54.28         19.7 GVEL035B49
     K22L00P KC2022 06 04.94596116 09 25.949+32 08 42.40         19.8 GVEL035B49
     K22L00P KC2022 06 04.95628516 09 31.202+32 06 37.37         19.9 GVEL035B49
     K22L00P KC2022 06 04.96878916 09 36.72 +32 03 55.8          19.1 GXEL035C95
     K22L00P KC2022 06 05.01491016 10 00.59 +31 54 23.8                XEL035C95
     K22L00P  C2022 06 05.26625316 12 44.491+31 00 43.61         19.8 GVEL035654
     K22L00P  C2022 06 05.30706116 13 06.949+30 51 26.99         20.0 GVEL035654
     K22L00P  C2022 06 05.31757016 13 12.774+30 49 01.21         19.8 GVEL035654
     K22L00P  C2022 06 05.34954816 13 28.808+30 41 34.73         19.84GVEL035G96
     K22L00P  C2022 06 05.35475416 13 31.750+30 40 20.46         19.87GVEL035G96
     K22L00P  C2022 06 05.35997216 13 34.734+30 39 05.26         19.91GVEL035G96
     K22L00P  C2022 06 05.36518016 13 37.693+30 37 50.52         20.00GVEL035G96
     K22L00P KC2022 06 05.37045616 13 40.732+30 36 34.02         19.61GVEL035I52
     K22L00P KC2022 06 05.37380116 13 42.661+30 35 45.53         19.81GVEL035I52
     K22L00P KC2022 06 05.37818516 13 45.217+30 34 41.95         19.75GVEL035I52
     K22L00P KC2022 06 05.37917216 13 45.786+30 34 27.30         19.77GVEL035I52

Observer details:
033 Karl Schwarzschild Observatory, Tautenburg.  Observers S. Melnikov, C.
    Hoegner, U. Laux, F. Ludwig, B. Stecklum.  Measurer B. Stecklum.  1.34-m
    f/3 Schmidt + CCD.
654 Table Mountain Observatory, Wrightwood-PHMC.  Observers N. Evans, P. Choi,
    N. Saini, C. Zhai, R. Trahan, M. Shao.  1.0-m Reflector + CCD.
958 Observatoire de Dax.  Observer P. Dupouy.  0.50-m f/6 Reflector + CCD.
B37 Obs. de L Ametlla del Valles, Barcelona.  Observer A. Garrigos.  0.51-m
    f/4.0 0.51-m f/4.0 reflector + CCD.
B49 Paus Observatory, Sabadell.  Observer J. Camarasa.  Measurer G.
    Duszanowicz.  0.30-m f/4.0 0.30-m f/4 reflector + CCD.
C95 SATINO Remote Observatory, Haute Provence.  Observer J. Jahn.  0.60-m
    f/3.2 Newtonian reflector + CCD.
G96 Mt. Lemmon Survey.  Observer A. Serrano.  Measurers E. J. Christensen, D.
    Fay, J. B. Fazekas, D. C. Fuls, A. R. Gibbs, A. D. Grauer, H. Groeller, J.
    K. Hogan, R. A. Kowalski, S. M. Larson, G. J. Leonard, D. Rankin, R. L.
    Seaman, A. Serrano, F. C. Shelly, K. W. Wierzchos.  1.5-m reflector + 10K
    CCD.
I52 Steward Observatory, Mt. Lemmon Station.  Observer G. J. Leonard.
    Measurers E. J. Christensen, D. Fay, J. B. Fazekas, D. C. Fuls, A. R.
    Gibbs, A. D. Grauer, H. Groeller, J. K. Hogan, R. A. Kowalski, S. M.
    Larson, G. J. Leonard, D. Rankin, R. L. Seaman, A. Serrano, F. C. Shelly,
    K. W. Wierzchos.  1.0-m prime focus + CCD.
L01 Visnjan Observatory, Tican.  Observers K. Korlevic, G. Kervina.  Measurer
    K. Korlevic.  1.0-m f/2.9 reflector + CCD.

Orbital elements:
2022 LP                                                  Earth MOID = 0.0153 AU
Epoch 2022 Jan. 21.0 TT = JDT 2459600.5                 Veres                   
M 315.65929              (2000.0)            P               Q                  
n   0.30044559     Peri.  189.05371     -0.04278245     +0.95509705             
a   2.2077954      Node    78.89873     -0.89692463     +0.09255453             
e   0.5356310      Incl.   17.38427     -0.44010892     -0.28146630             
P   3.28           H   25.19          G   0.15           U   8                  
Residuals in seconds of arc
220604 G96  0.2+  0.1-    220604 L01  0.0   0.2-    220604 B49  0.1+  0.1-
220604 G96  0.0   0.3+    220604 B37  0.1-  0.1+    220604 C95  0.4-  0.2-
220604 G96  0.1+  0.1-    220604 B37  0.1+  0.1+    220605 C95  0.4-  0.5+
220604 G96  0.2+  0.1-    220604 L01  0.3-  0.4-    220605 654  0.1-  0.1-
220604 I52  0.3+  0.1+    220604 L01  0.1-  0.1-    220605 654  0.1-  0.1-
220604 I52  0.0   0.1+    220604 L01  0.3-  0.1+    220605 654  0.1-  0.0
220604 I52  0.1+  0.2+    220604 L01  0.4-  0.0     220605 G96  0.2+  0.1-
220604 I52  0.4-  0.3-    220604 B37  0.1-  0.2-    220605 G96  0.0   0.2+
220604 033  0.1+  0.1-    220604 958  1.1+  0.8-    220605 G96  0.1+  0.1-
220604 033  0.1+  0.1-    220604 958  0.3+  0.2+    220605 G96  0.2-  0.2+
220604 033  0.2+  0.1-    220604 958  0.3+  0.3-    220605 I52  0.1-  0.0
220604 B37  0.2+  0.1+    220604 B49  0.6-  0.4+    220605 I52  0.1-  0.0
220604 B37  0.7+  0.2+    220604 B49  0.1+  0.3+    220605 I52  0.1+  0.1+
220604 B37  0.1+  0.1+    220604 B49  0.2-  0.3+    220605 I52  0.1+  0.2-

Ephemeris:
2022 LP                  a,e,i = 2.21, 0.54, 17                  q = 1.0252
Date    TT    R. A. (2000) Decl.     Delta      r    Elong.  Phase     V
2022 05 06    15 14 34.5 +43 46 23   0.2445  1.1493   119.6    49.7    24.3
...
2022 05 21    15 22 17.0 +44 23 06   0.1420  1.0802   115.2    57.9    23.2
...
2022 05 29    15 34 33.5 +42 07 29   0.08650 1.0535   115.4    60.3    22.1
...
2022 06 04    16 01 09.6 +34 51 55   0.04530 1.0390   121.8    56.1    20.6
2022 06 05    16 09 56.0 +31 58 30   0.03867 1.0370   124.7    53.6    20.2
2022 06 06    16 21 24.7 +27 49 28   0.03223 1.0352   128.9    49.7    19.7
...
2022 06 12    21 12 03.7 -59 37 49   0.02052 1.0275   125.8    53.3    18.8
...
2022 06 20    01 52 51.7 -58 03 04   0.07210 1.0255    95.4    80.6    22.3
...
2022 07 05    02 31 03.6 -54 03 45   0.1728  1.0472    95.4    75.1    24.1

M. P. C. Staff               (C) Copyright 2022 MPC           M.P.E.C. 2022-L35




More information about the Iaude mailing list